Ana Sayfa
METAR-TAF:

METAR-TAF

Havaalanları :

Hobart, Oklahoma, Amerika Birleşik Devletleri

Enlem: 34-59-22N, Boylam: 099-03-09W, yükseklik: 476 m

Güncel hava durumu gözlemi

Rapor saat 06:53 UTC de 39 dakika önce yapıldı.
Rüzgar güneydan 6 kt
Sıcaklık 7°C
Nem 53%
Basınç 1024 hPa
Görüş mesafesi: 16.1 km
Açık gökyüzü

METAR: KHBR 290653Z AUTO 18006KT 10SM CLR 07/M02 A3025 RMK AO2 SLP242 T00721017

Saat: 01:32 (07:32 UTC)


TAF: eksik

4.000'den fazla havaalanı için hava durumu gözlemleri ve tahminleri (METAR ve TAF raporları).

Kullanılabilir istasyonlar harita üzerinde sarı ve kırmızı noktalarla gösterilir.

İstasyonun adını görmek için fareyi noktanın üzerinde gezdirin.

Sonrasında hava gözlem ve tahminlerini görmek için tıklayın.

Haritayı değiştirmek için: yaklaştırmak için siyah artı işaretli yeşil düğmeye ve uzaklaştırmak için de eksi işaretli düğmeye hızla tıklayın; bitişik haritalar için yeşil okları kullanın.


METAR-TAF: